IBLACK343 Weather Reports


time (UTC)temp
C
wind
direction
speed
KPH
gust
KPH
rain 1hr
cm
rain 24hr
cm
rain mn
cm
humidity
%
barometer
mb
20260906232004 15 127 1.6 8.0 0.00 0.08 0.08 82 1018.2
20260906231511 15 35 4.8 8.0 0.00 0.08 0.08 82 1018.2
20260906231010 15 108 1.6 8.0 0.00 0.08 0.08 83 1018.2
20260906230508 15 96 3.2 8.0 0.00 0.08 0.08 83 1018.4
20260906230015 15 98 4.8 9.7 0.00 0.08 0.08 83 1018.3
20260906225510 15 124 4.8 14.5 0.00 0.08 0.08 83 1018.3
20260906225012 14 101 3.2 14.5 0.00 0.08 0.08 83 1018.3
20260906224527 14 124 3.2 9.7 0.00 0.08 0.08 84 1018.3
20260906224010 14 51 1.6 9.7 0.00 0.08 0.08 85 1018.4
20260906223516 14 133 1.6 9.7 0.00 0.08 0.08 85 1018.3
20260906223030 13 60 4.8 11.3 0.00 0.08 0.08 86 1018.3
20260906222504 13 143 4.8 11.3 0.00 0.08 0.08 86 1018.5
20260906222004 13 124 1.6 14.5 0.03 0.08 0.08 87 1018.5
20260906221511 13 117 1.6 14.5 0.03 0.08 0.08 88 1018.6
20260906221003 13 95 4.8 9.7 0.03 0.08 0.08 88 1018.6
20260906220503 13 113 3.2 11.3 0.03 0.08 0.08 88 1018.6
20260906220017 13 102 6.4 11.3 0.03 0.08 0.08 88 1018.6
20260906215509 13 52 3.2 11.3 0.05 0.08 0.08 89 1018.7
20260906215008 13 113 3.2 11.3 0.05 0.08 0.08 89 1018.6
20260906214521 13 94 6.4 11.3 0.05 0.08 0.08 90 1018.7
20260906214010 13 86 4.8 11.3 0.05 0.08 0.08 90 1018.7
20260906213512 12 101 1.6 11.3 0.05 0.08 0.08 90 1018.8
20260906213028 12 33 4.8 14.5 0.05 0.08 0.08 90 1018.7
20260906212513 12 87 4.8 14.5 0.05 0.08 0.08 89 1018.8
20260906212015 13 93 4.8 12.9 0.03 0.05 0.05 89 1018.8
20260906211529 13 84 3.2 12.9 0.03 0.05 0.05 89 1018.9
20260906211015 13 71 4.8 12.9 0.03 0.05 0.05 89 1018.8
20260906210505 13 101 6.4 12.9 0.03 0.05 0.05 89 1018.8
20260906210011 13 121 4.8 12.9 0.03 0.05 0.05 88 1018.8
20260906205507 13 59 6.4 14.5 0.00 0.03 0.03 87 1018.9
20260906205003 13 129 6.4 14.5 0.00 0.03 0.03 87 1019.0
20260906204517 13 79 3.2 14.5 0.00 0.03 0.03 88 1019.0
20260906204008 13 93 6.4 14.5 0.00 0.03 0.03 88 1019.0
20260906203508 13 114 3.2 9.7 0.00 0.03 0.03 89 1019.0
20260906203024 13 101 3.2 11.3 0.00 0.03 0.03 89 1019.0
20260906202511 13 124 6.4 14.5 0.00 0.03 0.03 89 1019.0
20260906202014 13 112 4.8 14.5 0.00 0.03 0.03 90 1019.0
20260906201528 13 78 3.2 9.7 0.03 0.03 0.03 90 1019.1
20260906201015 13 95 4.8 9.7 0.03 0.03 0.03 90 1019.1
20260906200515 13 90 3.2 9.7 0.03 0.03 0.03 91 1019.1
20260906200030 12 73 4.8 9.7 0.03 0.03 0.03 90 1019.1
20260906195517 13 117 3.2 9.7 0.03 0.03 0.03 91 1019.3
20260906195017 12 101 4.8 9.7 0.03 0.03 0.03 91 1019.3
20260906194513 12 113 4.8 14.5 0.03 0.03 0.03 91 1019.4
20260906194005 12 181 3.2 14.5 0.03 0.03 0.03 91 1019.4
20260906193509 12 86 1.6 6.4 0.03 0.03 0.03 91 1019.5
20260906193018 12 93 1.6 6.4 0.03 0.03 0.03 92 1019.4
20260906192509 12 120 1.6 8.0 0.03 0.03 0.03 92 1019.4
20260906192012 12 85 3.2 8.0 0.03 0.03 0.03 91 1019.5
20260906191525 12 78 1.6 6.4 0.00 0.00 0.00 91 1019.5
20260906191014 12 124 1.6 6.4 0.00 0.00 0.00 91 1019.7
20260906190514 12 82 1.6 8.0 0.00 0.00 0.00 91 1019.7
20260906190031 12 110 4.8 8.0 0.00 0.00 0.00 91 1019.7
20260906185514 12 77 3.2 8.0 0.00 0.00 0.00 91 1019.7
20260906185013 12 101 3.2 12.9 0.00 0.00 0.00 91 1019.7
20260906184533 12 74 4.8 12.9 0.00 0.00 0.00 91 1019.8
20260906184019 12 121 1.6 8.0 0.00 0.00 0.00 91 1019.8
20260906183515 12 119 1.6 6.4 0.00 0.00 0.00 91 1019.8
20260906183031 12 78 0.0 4.8 0.00 0.00 0.00 92 1019.8
20260906182508 12 73 1.6 4.8 0.00 0.00 0.00 92 1019.8
20260906182007 12 118 1.6 6.4 0.00 0.00 0.00 92 1019.8
20260906181527 12 100 0.0 6.4 0.00 0.00 0.00 92 1019.9
20260906181009 12 37 3.2 6.4 0.00 0.00 0.00 91 1020.0
20260906180513 12 102 1.6 4.8 0.00 0.00 0.00 91 1020.1
20260906180026 12 124 3.2 8.0 0.00 0.00 0.00 91 1020.1
20260906175512 12 78 3.2 8.0 0.00 0.00 0.00 91 1020.1
20260906175016 12 112 0.0 4.8 0.00 0.00 0.00 91 1020.1
20260906174530 11 53 3.2 4.8 0.00 0.00 0.00 90 1020.2
20260906174016 11 117 1.6 3.2 0.00 0.00 0.00 90 1020.3
20260906173515 11 123 0.0 3.2 0.00 0.00 0.00 90 1020.4
20260906173007 11 72 0.0 3.2 0.00 0.00 0.00 90 1020.3
20260906172503 11 117 1.6 4.8 0.00 0.00 0.00 89 1020.4
20260906172003 11 86 1.6 4.8 0.00 0.00 0.00 89 1020.4
20260906171503 11 113 1.6 4.8 0.00 0.00 0.00 89 1020.4
20260906171002 11 96 0.0 4.8 0.00 0.00 0.00 88 1020.4
20260906170503 11 94 0.0 4.8 0.00 0.00 0.00 88 1020.4
20260906170007 11 108 1.6 4.8 0.00 0.00 0.00 88 1020.4
20260906165503 11 122 1.6 4.8 0.00 0.00 0.00 88 1020.4
20260906165002 11 120 1.6 4.8 0.00 0.00 0.00 88 1020.5
20260906164510 11 104 0.0 4.8 0.00 0.00 0.00 88 1020.5
20260906164004 11 122 1.6 8.0 0.00 0.00 0.00 88 1020.6
20260906163503 11 145 1.6 8.0 0.00 0.00 0.00 88 1020.4
20260906163008 11 79 1.6 4.8 0.00 0.00 0.00 88 1020.6
20260906162503 11 115 0.0 4.8 0.00 0.00 0.00 88 1020.5
20260906162004 11 117 0.0 6.4 0.00 0.00 0.00 88 1020.6
20260906161508 11 111 3.2 6.4 0.00 0.00 0.00 88 1020.7
20260906161004 11 115 1.6 3.2 0.00 0.00 0.00 88 1020.6
20260906160505 11 111 0.0 4.8 0.00 0.00 0.00 88 1020.6
20260906160009 11 150 0.0 4.8 0.00 0.00 0.00 89 1020.6
20260906155502 11 108 0.0 4.8 0.00 0.00 0.00 89 1020.4
20260906155002 11 68 1.6 4.8 0.00 0.00 0.00 89 1020.1
20260906154510 11 122 0.0 1.6 0.00 0.00 0.00 89 1020.1
20260906154003 11 122 0.0 1.6 0.00 0.00 0.00 89 1020.2
20260906153503 11 194 0.0 1.6 0.00 0.00 0.00 89 1020.3
20260906153006 11 148 0.0 3.2 0.00 0.00 0.00 89 1020.3
20260906152506 11 148 0.0 3.2 0.00 0.00 0.00 89 1020.4
20260906152004 11 98 0.0 3.2 0.00 0.00 0.00 89 1020.4
20260906151509 10 185 1.6 3.2 0.00 0.00 0.00 89 1020.4
20260906151004 10 103 0.0 4.8 0.00 0.00 0.00 89 1020.6
20260906150504 10 83 3.2 4.8 0.00 0.00 0.00 89 1020.8
20260906150013 10 113 0.0 3.2 0.00 0.00 0.00 89 1020.8
20260906145507 10 113 0.0 6.4 0.00 0.00 0.00 89 1020.7
20260906145004 10 102 0.0 6.4 0.00 0.00 0.00 89 1020.8
20260906144516 10 135 1.6 4.8 0.00 0.00 0.00 89 1020.7
20260906144006 10 134 0.0 8.0 0.00 0.00 0.00 90 1020.7
20260906143503 10 72 3.2 8.0 0.00 0.00 0.00 89 1020.8
20260906143009 10 103 1.6 4.8 0.00 0.00 0.00 90 1020.8
20260906142503 10 58 1.6 4.8 0.00 0.00 0.00 90 1020.8
20260906142004 10 86 1.6 4.8 0.00 0.00 0.00 90 1020.8
20260906141503 10 113 0.0 4.8 0.00 0.00 0.00 90 1020.8
20260906141004 10 109 0.0 4.8 0.00 0.00 0.00 90 1020.7
20260906140504 10 122 1.6 4.8 0.00 0.00 0.00 90 1020.7
20260906140010 10 165 0.0 1.6 0.00 0.00 0.00 91 1020.8
20260906135504 10 124 0.0 4.8 0.00 0.00 0.00 91 1020.8
20260906135007 10 113 1.6 6.4 0.00 0.00 0.00 91 1020.8
20260906134522 10 115 3.2 6.4 0.00 0.00 0.00 91 1020.7
20260906134008 10 111 3.2 4.8 0.00 0.00 0.00 91 1020.8
20260906133505 10 110 1.6 4.8 0.00 0.00 0.00 91 1020.8
20260906133017 10 120 1.6 4.8 0.00 0.00 0.00 91 1020.8
20260906132507 10 117 1.6 3.2 0.00 0.00 0.00 91 1020.9
20260906132005 10 94 0.0 4.8 0.00 0.00 0.00 91 1021.0
20260906131507 10 116 3.2 4.8 0.00 0.00 0.00 91 1021.0
20260906131004 10 119 1.6 3.2 0.00 0.00 0.00 91 1021.1
20260906130504 10 94 1.6 4.8 0.00 0.00 0.00 91 1021.1
20260906130009 10 94 1.6 4.8 0.00 0.00 0.00 91 1021.0
20260906125503 10 122 0.0 4.8 0.00 0.00 0.00 91 1021.0
20260906125003 10 115 1.6 6.4 0.00 0.00 0.00 91 1021.1
20260906124518 10 124 0.0 6.4 0.00 0.00 0.00 91 1021.2
20260906124009 10 102 1.6 6.4 0.00 0.00 0.00 91 1021.4
20260906123509 10 111 0.0 4.8 0.00 0.00 0.00 91 1021.5
20260906123031 10 139 1.6 6.4 0.00 0.00 0.00 91 1021.5
20260906122513 10 111 1.6 6.4 0.00 0.00 0.00 91 1021.6
20260906122010 10 162 0.0 4.8 0.00 0.00 0.00 91 1021.7
20260906121523 10 120 1.6 4.8 0.00 0.00 0.00 91 1021.6
20260906121012 10 120 3.2 11.3 0.00 0.00 0.00 91 1021.8
20260906120510 10 158 0.0 11.3 0.00 0.00 0.00 91 1021.9
20260906120025 10 95 4.8 11.3 0.00 0.00 0.00 91 1021.9
20260906115503 10 129 3.2 6.4 0.00 0.00 0.00 91 1021.8
20260906115004 10 120 0.0 6.4 0.00 0.00 0.00 91 1021.8
20260906114511 10 113 1.6 6.4 0.00 0.00 0.00 91 1021.8
20260906114006 10 122 3.2 6.4 0.00 0.00 0.00 90 1021.8
20260906113504 10 116 1.6 9.7 0.00 0.00 0.00 90 1021.7
20260906113017 10 136 1.6 9.7 0.00 0.00 0.00 90 1021.5
20260906112508 10 101 1.6 4.8 0.00 0.00 0.00 90 1021.5
20260906112007 10 95 1.6 4.8 0.00 0.00 0.00 90 1021.4
20260906111529 10 141 0.0 6.4 0.00 0.00 0.00 90 1021.6
20260906111010 10 92 3.2 6.4 0.00 0.00 0.00 90 1021.5
20260906110513 10 117 1.6 4.8 0.00 0.00 0.00 90 1021.3
20260906110026 10 117 1.6 6.4 0.00 0.00 0.00 90 1021.1
20260906105510 10 113 1.6 6.4 0.00 0.00 0.00 90 1021.2
20260906105010 10 115 3.2 6.4 0.00 0.00 0.00 90 1021.5
20260906104530 10 124 3.2 6.4 0.00 0.00 0.00 89 1021.5
20260906104009 10 129 1.6 4.8 0.00 0.00 0.00 89 1021.5
20260906103506 10 112 1.6 8.0 0.00 0.00 0.00 89 1021.9
20260906103016 10 113 1.6 8.0 0.00 0.00 0.00 89 1021.9
20260906102505 10 122 3.2 8.0 0.00 0.00 0.00 89 1021.9
20260906102007 10 112 0.0 4.8 0.00 0.00 0.00 90 1022.0
20260906101518 10 114 1.6 6.4 0.00 0.00 0.00 90 1022.0
20260906101009 10 158 1.6 6.4 0.00 0.00 0.00 90 1022.2
20260906100511 10 110 1.6 8.0 0.00 0.00 0.00 90 1022.1
20260906100026 10 113 0.0 8.0 0.00 0.00 0.00 90 1022.2
20260906095510 10 94 1.6 6.4 0.00 0.00 0.00 90 1022.2
20260906095014 10 129 3.2 6.4 0.00 0.00 0.00 90 1022.1
20260906094530 10 117 1.6 4.8 0.00 0.00 0.00 90 1022.2
20260906094013 10 116 0.0 4.8 0.00 0.00 0.00 90 1022.2
20260906093514 10 79 1.6 4.8 0.00 0.00 0.00 90 1022.2
20260906093030 10 114 0.0 6.4 0.00 0.00 0.00 90 1022.4
20260906092516 10 123 1.6 6.4 0.00 0.00 0.00 90 1022.4
20260906092014 10 117 1.6 3.2 0.00 0.00 0.00 90 1022.5
20260906091517 10 120 0.0 3.2 0.00 0.00 0.00 90 1022.5
20260906091007 10 108 1.6 6.4 0.00 0.00 0.00 90 1022.6
20260906090508 10 98 1.6 8.0 0.00 0.00 0.00 90 1022.5
20260906090019 10 102 0.0 8.0 0.00 0.00 0.00 90 1022.5
20260906085508 10 113 3.2 8.0 0.00 0.00 0.00 90 1022.6
20260906085010 10 120 3.2 6.4 0.00 0.00 0.00 90 1022.6
20260906084529 10 124 3.2 4.8 0.00 0.00 0.00 90 1022.6
20260906084017 10 119 1.6 4.8 0.00 0.00 0.00 90 1022.6
20260906083513 10 138 1.6 6.4 0.00 0.00 0.00 90 1022.7
20260906083004 10 118 3.2 6.4 0.00 0.00 0.00 90 1022.8
20260906082503 10 120 1.6 3.2 0.00 0.00 0.00 90 1022.7
20260906082004 10 116 0.0 4.8 0.00 0.00 0.00 90 1022.6
20260906081511 10 119 0.0 4.8 0.00 0.00 0.00 90 1022.6
20260906081004 10 113 1.6 3.2 0.00 0.00 0.00 90 1022.7
20260906080504 10 130 0.0 3.2 0.00 0.00 0.00 90 1022.7
20260906080025 10 108 0.0 3.2 0.00 0.00 0.00 90 1022.7
20260906075509 10 117 0.0 3.2 0.00 0.00 0.00 90 1022.8
20260906075010 10 122 0.0 3.2 0.00 0.00 0.00 90 1022.8
20260906074523 10 123 1.6 3.2 0.00 0.00 0.00 89 1023.1
20260906074002 10 123 0.0 3.2 0.00 0.00 0.00 89 1023.1
20260906073502 10 116 0.0 3.2 0.00 0.00 0.00 89 1023.0
20260906073006 10 127 1.6 3.2 0.00 0.00 0.00 89 1023.0
20260906072504 10 126 0.0 1.6 0.00 0.00 0.00 89 1023.0
20260906072003 10 126 0.0 3.2 0.00 0.00 0.00 89 1023.0
20260906071504 10 126 0.0 3.2 0.00 0.00 0.00 89 1023.1
20260906071003 10 103 1.6 1.6 0.00 0.00 0.00 89 1023.1
20260906070506 10 106 0.0 1.6 0.00 0.00 0.00 89 1023.1
20260906070013 10 106 0.0 1.6 0.00 0.00 0.00 89 1023.0
20260906065504 10 107 0.0 1.6 0.00 0.00 0.00 89 1023.0
20260906065006 10 106 0.0 1.6 0.00 0.03 0.00 89 1023.1
20260906064517 10 122 0.0 3.2 0.00 0.03 0.00 89 1023.1
20260906064011 10 122 1.6 4.8 0.00 0.03 0.00 89 1023.1
20260906063509 10 105 0.0 4.8 0.00 0.03 0.00 89 1023.1
20260906063027 10 102 1.6 4.8 0.00 0.03 0.00 89 1023.1
20260906062512 10 112 0.0 3.2 0.00 0.03 0.00 89 1023.1
20260906062003 10 130 0.0 3.2 0.00 0.03 0.00 89 1023.2
20260906061505 11 69 0.0 4.8 0.00 0.03 0.00 88 1023.2
20260906061004 11 69 1.6 4.8 0.00 0.03 0.00 89 1023.1
20260906060507 11 69 0.0 3.2 0.00 0.05 0.00 88 1023.3
20260906060006 11 118 0.0 6.4 0.00 0.05 0.00 88 1023.3
20260906055506 11 124 1.6 6.4 0.00 0.05 0.05 88 1023.3
20260906055006 11 121 3.2 6.4 0.00 0.05 0.05 88 1023.3
20260906054511 11 111 1.6 6.4 0.00 0.05 0.05 88 1023.3
20260906054007 11 96 1.6 6.4 0.00 0.05 0.05 88 1023.3
20260906053512 11 48 1.6 4.8 0.00 0.05 0.05 88 1023.3
20260906053016 11 114 0.0 6.4 0.00 0.05 0.05 88 1023.3
20260906052508 11 39 3.2 6.4 0.00 0.05 0.05 87 1023.2
20260906052010 11 83 1.6 6.4 0.00 0.05 0.05 87 1023.2
20260906051527 11 126 1.6 4.8 0.00 0.05 0.05 87 1023.2
20260906051011 11 97 0.0 3.2 0.00 0.05 0.05 87 1023.1
20260906050513 11 125 0.0 3.2 0.00 0.05 0.05 87 1023.2
20260906050007 11 100 0.0 3.2 0.00 0.05 0.05 87 1023.3
20260906045504 11 91 0.0 3.2 0.00 0.05 0.05 87 1023.3
20260906045005 11 115 0.0 1.6 0.00 0.05 0.05 87 1023.2
20260906044508 11 89 0.0 1.6 0.00 0.05 0.05 87 1023.2
20260906044010 11 62 0.0 1.6 0.00 0.05 0.05 87 1023.1
20260906043506 11 55 0.0 0.0 0.00 0.05 0.05 87 1023.2
20260906043027 11 54 0.0 1.6 0.00 0.05 0.05 87 1023.1
20260906042506 11 54 0.0 1.6 0.00 0.05 0.05 87 1023.0
20260906042008 11 22 0.0 1.6 0.00 0.05 0.05 87 1022.9
20260906041520 11 20 0.0 1.6 0.00 0.05 0.05 87 1023.0
20260906041010 11 100 0.0 3.2 0.00 0.05 0.05 87 1023.0
20260906040511 11 51 1.6 4.8 0.00 0.05 0.05 86 1023.1
20260906040026 11 46 1.6 6.4 0.00 0.05 0.05 86 1023.0
20260906035514 11 62 1.6 6.4 0.00 0.05 0.05 86 1023.0
20260906035012 11 354 1.6 4.8 0.00 0.05 0.05 86 1023.0
20260906034530 11 66 1.6 3.2 0.00 0.05 0.05 86 1023.1
20260906034003 11 77 0.0 4.8 0.00 0.05 0.05 86 1023.2
20260906033502 11 78 1.6 6.4 0.00 0.05 0.05 86 1023.2
20260906033019 11 63 1.6 6.4 0.00 0.05 0.05 86 1023.2
20260906032504 11 63 0.0 6.4 0.00 0.05 0.05 86 1023.2
20260906032007 11 49 1.6 6.4 0.00 0.05 0.05 86 1023.1
20260906031517 11 56 1.6 4.8 0.00 0.05 0.05 86 1023.1
20260906031008 11 97 0.0 6.4 0.00 0.05 0.05 86 1023.1
20260906030508 11 120 0.0 6.4 0.00 0.05 0.05 86 1023.2
20260906030025 11 60 0.0 6.4 0.00 0.05 0.05 85 1023.1
20260906025511 11 25 1.6 6.4 0.00 0.05 0.05 85 1023.2
20260906025013 11 89 0.0 6.4 0.00 0.05 0.05 85 1023.1
20260906024527 11 92 3.2 8.0 0.00 0.05 0.05 85 1023.1
20260906024016 11 43 1.6 8.0 0.00 0.05 0.05 85 1023.1
20260906023517 11 349 0.0 9.7 0.00 0.05 0.05 85 1023.0
20260906023030 11 69 3.2 9.7 0.00 0.05 0.05 85 1023.0
20260906022515 11 60 1.6 6.4 0.00 0.05 0.05 85 1023.0
20260906022003 11 79 1.6 6.4 0.00 0.05 0.05 85 1022.9
20260906021509 11 17 1.6 4.8 0.00 0.05 0.05 85 1022.9
20260906021010 11 14 1.6 4.8 0.00 0.05 0.05 84 1022.9
20260906020508 11 53 1.6 4.8 0.00 0.05 0.05 84 1022.8
20260906020018 11 37 1.6 8.0 0.00 0.05 0.05 84 1022.8
20260906015509 11 7 0.0 9.7 0.00 0.05 0.05 84 1022.8
20260906015012 11 52 3.2 9.7 0.00 0.05 0.05 83 1022.8
20260906014527 11 15 1.6 6.4 0.00 0.05 0.05 83 1022.7
20260906014013 11 51 3.2 9.7 0.00 0.05 0.05 83 1022.7
20260906013512 11 56 1.6 9.7 0.00 0.05 0.05 83 1022.7
20260906013040 11 37 1.6 9.7 0.00 0.05 0.05 83 1022.6
20260906012514 11 59 1.6 9.7 0.00 0.05 0.05 83 1022.6
20260906012019 11 63 3.2 8.0 0.00 0.05 0.05 83 1022.6
20260906011529 11 59 3.2 8.0 0.00 0.05 0.05 83 1022.6
20260906011019 11 45 1.6 8.0 0.00 0.05 0.05 83 1022.5
20260906010517 11 333 1.6 8.0 0.00 0.05 0.05 82 1022.6
20260906010014 11 20 1.6 8.0 0.00 0.05 0.05 82 1022.6
20260906005505 12 24 1.6 6.4 0.00 0.05 0.05 82 1022.5
20260906005009 11 360 1.6 8.0 0.00 0.05 0.05 82 1022.4
20260906004518 12 29 1.6 8.0 0.00 0.05 0.05 82 1022.3
20260906004008 12 23 3.2 6.4 0.00 0.05 0.05 82 1022.3
20260906003512 12 358 1.6 8.0 0.00 0.05 0.05 82 1022.3
20260906003027 12 359 3.2 8.0 0.00 0.05 0.05 81 1022.2
20260906002511 12 7 1.6 8.0 0.00 0.05 0.05 82 1022.3
20260906002014 12 13 1.6 8.0 0.00 0.05 0.05 82 1022.3
20260906001530 12 9 3.2 8.0 0.00 0.05 0.05 82 1022.3
20260906001016 12 78 1.6 8.0 0.00 0.05 0.05 82 1022.3
20260906000516 12 37 3.2 6.4 0.00 0.05 0.05 82 1022.4
20260906000049 12 55 3.2 6.4 0.00 0.05 0.05 82 1022.5
20260905235517 12 20 1.6 6.4 0.00 0.05 0.05 83 1022.4
20260905235018 11 57 1.6 9.7 0.00 0.05 0.05 83 1022.6
20260905234537 11 15 1.6 9.7 0.00 0.05 0.05 83 1022.6
20260905234007 11 8 4.8 9.7 0.00 0.05 0.05 82 1022.6
20260905233510 11 16 1.6 6.4 0.00 0.05 0.05 82 1022.7
20260905233021 12 39 3.2 6.4 0.00 0.05 0.05 82 1022.6
20260905232502 12 336 1.6 6.4 0.00 0.05 0.05 82 1022.6